Theta_e
306 299 295 297 298 300 300 297 296 298 300 298 296 295 299 301 303 301 300 300 301 303 306 309 312 316 318 318 314 315 312 314 316 314 313 315 315 317 319 322 324 325 326 329
301 296 302 303 302 300 299 296 296 298 300 297 296 296 299 301 303 303 301 300 301 302 304 308 311 311 315 316 316 315 314 312 314 315 315 316 316 318 318 320 322 325 327 328
298 301 306 303 300 298 297 296 296 296 299 298 296 294 297 301 303 305 302 302 302 302 303 306 310 308 312 314 312 316 316 311 313 315 316 316 317 319 318 319 322 324 328 328
300 304 303 301 299 299 293 300 300 299 295 289 297 285 294 298 300 303 301 300 300 302 304 307 309 307 310 315 316 316 316 315 314 311 313 313 313 314 317 319 323 326 329 328
300 301 300 299 300 301 296 301 298 299 293 291 293 287 293 298 298 302 301 300 301 302 304 307 308 309 311 314 318 318 317 317 313 314 312 314 314 315 318 321 322 324 326 329
302 306 304 303 303 301 302 298 298 295 291 285 291 290 290 294 299 302 302 301 302 302 303 307 310 311 312 311 318 317 315 316 319 316 313 313 315 316 317 316 316 315 319 324
300 301 304 302 297 300 298 293 286 283 283 283 294 291 294 299 301 305 302 302 302 304 302 306 308 308 310 311 314 317 316 315 316 319 315 312 312 312 312 312 314 315 316 319
293 292 301 304 298 295 294 294 287 281 282 288 298 290 294 306 305 307 306 303 303 302 304 306 307 307 310 312 312 317 316 314 314 315 314 314 316 315 313 313 312 313 315 316
293 294 303 303 302 300 294 292 296 290 292 288 293 301 305 307 305 306 304 302 301 302 305 305 306 308 307 312 312 314 314 312 313 313 312 311 313 314 314 314 313 312 314 318
298 293 300 304 307 305 298 300 291 289 282 282 289 298 295 302 302 304 301 301 301 302 305 305 307 308 308 310 311 314 314 312 313 311 311 312 313 314 313 314 312 313 313 317
301 295 296 304 301 297 299 297 298 295 292 284 282 292 304 305 305 303 302 302 302 303 304 305 307 308 310 310 311 313 313 314 313 312 313 313 313 313 312 312 313 313 313 315
300 296 293 300 306 308 306 303 301 293 292 293 293 292 308 308 307 306 303 304 303 305 305 306 308 308 310 310 311 311 312 314 314 315 313 313 314 311 310 310 311 313 313 314
301 294 291 293 300 304 299 303 304 302 299 293 290 292 308 309 308 307 304 304 304 304 304 306 307 309 310 310 310 311 311 312 315 315 313 313 312 309 308 309 310 311 311 312
307 295 296 292 295 301 298 301 303 301 294 294 295 299 303 307 306 309 305 304 304 304 306 307 307 309 310 311 310 311 308 310 316 315 314 312 309 308 307 309 310 310 309 309
302 295 297 299 301 303 301 301 301 300 300 296 298 300 302 306 309 311 309 306 304 303 306 307 308 308 310 310 310 311 308 312 316 316 314 312 311 308 307 309 309 309 308 309
304 294 300 300 303 302 300 302 302 302 302 301 301 300 307 310 312 311 309 307 305 304 306 307 309 309 310 311 309 310 309 312 316 316 315 316 313 310 307 308 308 308 307 305
300 298 294 293 301 299 294 300 301 303 303 302 297 302 308 307 309 309 309 309 307 306 306 307 309 310 311 312 311 310 310 312 315 317 319 318 315 310 308 308 308 305 303 303
299 295 294 293 297 287 299 306 306 303 304 304 304 305 307 309 311 311 312 310 309 309 307 308 309 310 312 312 312 313 312 313 315 318 319 319 315 311 309 308 307 306 302 301
303 298 293 291 287 295 299 304 303 301 300 307 305 306 308 310 313 311 314 314 312 311 310 309 311 311 312 312 313 313 312 314 316 318 318 320 317 314 310 308 307 307 304 302
303 301 295 288 286 285 296 304 310 307 295 306 307 306 306 307 303 306 314 316 314 313 312 310 310 311 312 312 313 313 313 313 315 317 319 321 319 316 312 309 308 309 307 306
295 295 291 287 284 293 302 306 309 294 296 310 309 308 306 305 307 310 313 314 316 314 313 312 310 310 311 313 313 312 314 313 317 319 320 320 320 318 316 313 310 310 310 309
295 290 290 289 286 288 308 305 299 303 306 310 311 311 310 310 311 312 312 313 315 315 314 311 310 311 311 313 313 313 313 316 318 320 320 320 320 321 319 316 314 311 311 309
295 297 293 294 294 303 308 307 309 308 307 311 310 313 312 312 312 312 311 312 314 316 315 312 311 310 311 312 313 312 313 316 318 318 318 319 320 321 320 318 316 314 312 311
301 303 298 298 301 302 306 307 310 312 311 313 313 313 314 312 311 311 312 310 314 317 315 313 312 310 310 312 313 313 314 315 316 316 314 317 318 319 320 321 320 318 315 313
301 303 299 298 301 304 305 307 311 311 313 314 316 316 315 315 313 312 312 313 313 316 317 314 312 311 311 313 313 313 313 315 315 315 315 312 316 317 319 321 321 320 320 317
299 300 298 296 302 302 305 309 312 313 313 314 314 315 317 316 316 313 313 316 313 316 317 314 313 313 312 315 314 314 314 316 314 313 313 314 313 315 318 320 320 307 307 304
Wind_Speed
3 3 5 8 8 5 6 6 9 4 6 7 11 7 13 11 7 10 8 9 8 8 7 5 6 5 4 1 3 4 4 3 3 2 2 3 3 3 3 4 5 5 11 7
0 7 8 8 7 8 7 9 12 7 8 8 8 13 9 11 13 14 13 9 10 6 6 5 6 4 3 1 0 3 3 2 2 1 2 1 1 2 2 3 5 6 10 7
9 8 8 10 9 9 7 8 11 6 1 6 4 6 5 7 2 9 8 9 8 11 9 7 7 5 4 2 2 2 2 2 1 4 3 2 2 3 4 4 4 5 7 4
8 10 12 10 12 10 9 8 14 6 7 7 5 6 5 6 8 11 11 10 10 9 6 7 7 5 4 5 2 4 3 2 1 3 4 4 2 2 2 2 4 6 8 5
15 8 8 12 18 13 11 7 8 7 7 4 3 4 7 7 5 9 11 12 10 10 10 10 9 8 6 7 5 3 3 1 3 4 4 4 4 2 3 4 6 7 5 6
13 9 9 15 10 14 8 4 6 6 4 1 7 5 5 7 16 7 10 12 13 10 9 9 8 7 6 3 6 4 5 3 5 6 7 7 6 4 4 5 4 3 3 3
7 16 10 6 7 5 5 7 2 5 5 7 1 3 11 12 10 18 19 15 13 12 9 9 9 7 6 6 7 5 5 2 5 7 8 7 6 6 6 5 4 5 3 5
10 13 13 6 9 9 7 10 8 8 4 10 6 5 9 6 13 16 19 17 13 10 9 11 10 8 8 8 7 6 6 4 6 7 6 6 7 4 4 5 4 4 3 3
9 14 8 5 7 15 5 4 10 6 3 1 4 6 7 2 9 12 14 15 15 12 12 12 9 8 8 8 8 8 7 5 6 7 6 6 6 7 5 5 4 3 4 4
9 11 11 10 2 4 12 6 3 3 5 5 5 4 7 3 9 10 13 17 14 10 12 10 9 8 6 7 6 7 8 8 7 6 6 5 6 6 6 6 5 6 5 6
14 7 5 4 6 9 1 3 5 4 6 3 3 7 8 12 14 18 17 17 17 15 14 11 9 8 8 6 7 8 7 8 6 6 5 6 5 6 6 6 4 4 5 7
12 9 12 4 5 5 2 8 8 6 4 2 4 9 6 8 9 15 18 17 16 16 14 11 11 9 8 8 7 8 7 8 7 6 6 6 6 5 6 5 5 4 5 5
11 6 4 6 6 4 3 5 7 10 3 7 0 7 5 6 6 8 12 14 15 15 11 11 9 10 9 8 7 8 7 8 7 7 7 6 5 5 5 5 5 5 6 6
20 9 20 16 11 7 4 10 15 9 6 5 7 9 9 7 7 7 10 13 15 18 17 15 11 10 10 8 8 8 7 7 8 8 8 7 7 6 4 4 6 7 6 7
10 13 8 18 14 16 9 14 16 19 17 10 8 7 10 11 17 15 11 12 13 14 16 17 15 12 11 9 7 9 7 8 9 9 8 8 7 6 5 5 6 7 7 6
4 6 7 3 11 10 5 8 14 20 18 14 9 10 10 14 2 5 13 18 19 19 19 19 17 15 15 13 9 10 8 9 10 10 9 7 7 7 6 6 7 7 7 7
8 8 3 6 14 10 2 10 14 18 11 16 12 13 7 9 7 13 14 21 24 22 20 21 21 18 16 15 11 12 10 8 10 10 9 9 7 7 6 6 7 7 7 6
6 7 6 6 8 8 5 8 14 14 5 7 4 9 9 18 15 13 13 21 22 22 22 20 19 18 17 15 12 12 11 12 11 11 11 10 10 8 7 7 7 6 5 6
1 6 6 9 3 1 3 7 10 10 12 16 12 10 5 8 6 8 15 17 22 23 21 21 20 20 17 17 14 14 14 14 12 13 12 12 11 10 8 8 8 6 6 5
6 8 7 4 8 10 6 5 7 7 10 6 10 8 4 7 12 11 16 17 16 20 20 18 19 18 18 18 16 15 17 16 15 14 14 13 12 12 11 9 9 5 5 6
4 4 6 3 3 5 4 8 7 11 6 8 10 7 5 6 9 8 10 9 15 19 21 18 18 21 23 20 18 18 17 19 18 16 15 14 13 14 13 11 6 7 6 6
7 6 4 4 4 5 9 4 12 11 4 7 5 8 7 5 5 6 8 9 16 17 15 16 19 20 19 20 19 19 20 19 18 17 16 15 14 12 9 13 10 7 8 8
5 8 9 9 8 8 17 9 10 8 7 7 6 6 8 8 5 6 10 11 14 22 18 19 20 20 17 20 22 22 20 18 18 17 18 16 15 14 12 12 10 7 9 8
4 6 6 5 7 10 17 5 6 6 7 6 3 2 2 2 7 7 10 7 11 17 17 17 18 19 18 20 22 26 19 18 19 19 15 16 16 14 12 10 10 10 10 9
7 8 8 6 3 5 3 3 5 8 6 4 7 7 7 5 6 5 4 7 6 12 15 18 21 19 22 22 24 21 19 19 19 18 16 12 13 15 14 13 12 12 13 15
1 10 8 7 5 5 4 1 4 11 10 10 7 5 6 5 8 4 4 6 5 9 13 15 19 21 21 21 22 20 19 20 20 17 14 13 9 10 12 12 11 14 12 19
Wind_Direction
236 147 213 232 225 213 229 246 263 267 230 145 213 215 198 201 189 159 160 154 159 162 185 161 115 132 139 324 16 46 100 358 25 348 331 344 339 325 352 19 18 45 85 122
327 226 217 228 240 239 246 258 271 306 227 154 207 242 194 193 204 172 163 166 162 158 179 146 138 128 104 92 261 45 93 25 326 300 275 223 308 313 307 359 43 35 100 99
193 217 208 230 252 253 255 242 261 223 94 318 134 295 182 215 105 149 169 159 155 166 177 145 148 162 128 131 104 109 128 176 26 6 35 33 14 354 5 23 31 28 88 101
213 225 229 247 238 223 247 234 251 214 143 209 151 256 290 199 169 164 170 170 171 170 171 145 157 163 168 172 185 96 99 160 244 57 64 62 76 74 337 60 66 46 66 71
227 219 227 232 231 217 231 220 232 183 169 153 234 91 266 128 184 175 185 182 177 179 169 156 165 170 205 155 171 146 106 59 69 71 110 87 70 14 42 49 70 78 103 151
216 219 221 235 232 214 209 189 36 56 89 18 239 165 265 189 201 171 190 178 176 177 176 156 172 169 194 162 157 176 124 32 50 71 81 114 98 86 55 46 42 49 73 91
232 246 255 200 220 170 99 75 303 340 356 227 236 117 245 213 192 180 179 179 176 175 163 153 168 177 187 189 180 182 136 95 89 77 82 93 96 93 92 79 68 58 48 70
207 248 253 212 195 182 177 152 160 206 202 264 26 269 268 284 196 177 178 168 163 168 161 161 177 176 188 202 183 178 156 146 111 107 90 85 90 84 72 79 75 59 62 81
192 235 260 222 221 160 207 162 190 156 199 101 246 292 341 233 107 134 152 159 173 170 168 170 177 182 179 200 183 169 159 154 133 127 116 95 96 89 91 75 58 58 48 64
219 226 230 254 207 329 174 174 107 16 190 248 274 243 231 238 160 148 163 177 174 169 169 172 172 186 184 185 164 165 166 156 160 138 127 120 114 105 92 86 73 67 57 64
196 159 262 136 170 191 94 81 70 112 140 186 246 258 213 197 173 171 181 184 173 175 176 174 173 184 176 178 159 169 165 152 158 148 138 126 122 114 107 103 99 82 76 74
200 177 227 214 286 247 128 156 122 115 302 305 206 266 250 220 161 171 180 180 181 175 172 172 171 171 167 184 148 167 178 163 167 163 146 137 132 123 110 107 119 124 92 74
182 205 128 354 342 355 169 133 88 99 105 236 216 264 303 91 164 177 176 174 178 170 163 171 166 172 173 185 162 172 187 167 158 149 140 136 133 126 128 123 122 122 116 107
182 170 202 207 198 147 188 166 171 165 180 225 238 274 271 154 177 153 177 175 189 171 171 173 175 178 178 187 171 173 193 162 156 149 143 143 155 156 148 133 125 124 126 110
211 200 190 213 176 183 188 189 193 205 218 202 236 238 251 202 198 185 165 168 176 184 175 180 177 182 183 188 176 177 182 159 155 151 148 161 163 152 142 133 125 116 109 112
206 211 114 62 149 149 148 212 214 215 220 230 235 249 233 239 214 173 177 173 184 188 186 183 181 183 183 189 179 180 178 166 157 155 161 160 151 147 146 143 132 115 113 113
163 144 96 151 140 114 236 195 212 229 222 213 223 231 233 233 218 240 181 180 188 189 189 185 184 186 185 187 176 181 179 162 160 159 160 157 152 151 150 135 124 123 130 119
211 118 117 150 130 211 187 163 198 223 218 208 254 252 197 223 210 234 207 184 192 186 192 188 185 186 188 185 178 177 171 169 166 165 166 160 158 158 150 139 140 133 134 142
21 122 104 143 207 51 172 165 155 164 244 202 209 246 192 235 139 256 207 196 188 189 192 192 188 182 184 184 182 171 175 173 171 173 173 169 164 159 156 159 160 159 147 155
49 65 106 141 159 206 188 165 124 103 255 196 187 230 231 96 194 222 191 199 199 194 191 186 183 182 183 187 182 175 179 179 181 179 180 171 168 167 173 172 171 167 158 167
66 50 123 103 105 279 261 140 126 175 227 197 169 178 150 170 219 273 215 214 207 190 190 186 173 184 190 183 179 184 183 188 185 181 180 176 175 176 178 173 165 162 159 155
142 133 148 95 104 228 162 115 169 207 178 170 170 152 148 210 250 292 264 244 205 189 187 184 182 189 184 184 184 190 193 186 183 183 183 182 180 183 175 177 178 168 160 173
166 173 159 165 200 217 190 190 217 178 166 186 186 198 160 165 248 208 236 229 216 201 194 186 188 187 186 186 189 195 196 182 180 182 189 185 187 188 179 178 181 170 179 185
236 130 137 119 212 211 198 200 187 165 197 170 182 135 75 276 241 243 256 265 193 181 191 188 184 186 187 191 193 205 185 186 184 187 177 187 187 192 186 188 188 186 188 197
175 149 157 206 232 98 88 148 173 218 224 307 122 183 190 192 236 248 253 260 200 175 192 182 181 187 195 192 200 197 188 182 189 193 193 172 191 192 193 195 190 196 210 197
144 170 177 202 178 130 153 184 171 192 208 211 172 174 216 193 203 131 315 300 262 189 178 186 196 190 196 196 200 192 188 184 186 189 194 198 176 186 196 201 210 229 225 211